Flag for U.S.A. Weather past 2 weeks in Gloucester, Massachusetts, U.S.A.

Now
38 °F

Clear.


Feels Like: 32 °F
Forecast: 38 / 54 °F
Wind: 8 mph from Northwest

Location: Beverly Municipal Airport

Current Time: Oct 20, 2014 at 5:01:19 AM

Latest Report: Oct 20, 2014 at 3:53 AM


Visibility: 10 mi

Pressure: 29.97 "Hg

Humidity: 58%

Dew point: 24 °F

Location of GloucesterLocation

Historic Weather in Gloucester — Graph

°F

Gloucester temperature yesterday

Maximum temperature yesterday: 55 °F (at 12:53 AM)
Minimum temperature yesterday: 43 °F (at 8:53 PM)
Average temperature yesterday: 50 °F

Past Weeks' High & Low Weather Summary

 TemperatureHumidityPressure
High80 °F (Oct 15, 2:53 PM)97% (Oct 12, 3:53 AM)30.35 "Hg (Oct 12, 3:53 AM)
Low36 °F (Oct 13, 5:53 AM)29% (Oct 9, 1:53 PM)29.46 "Hg (Oct 18, 4:53 PM)
Average57 °F71%29.95 "Hg
* Reported Oct 5 3:53 AM — Oct 20 3:53 AM, Gloucester, Weather by CustomWeather, © 2014

Note: Actual official high and low records may vary slightly from our data, if they occured in-between our weather recording intervals... More about our weather records

Advertising

Gloucester weather history for previous 24 hours

 ConditionsComfort  
Time TempWeatherWind HumidityBarometerVisibility
3:53 AM
Oct 20
38 °FClear.8 mph58%29.97 "Hg10 mi
2:53 AM38 °FClear.10 mph58%29.96 "Hg10 mi
1:53 AM39 °FClear.10 mph53%29.96 "Hg10 mi
12:53 AM40 °FPassing clouds.9 mph51%29.93 "Hg10 mi
10:53 PM
Oct 19
43 °FPassing clouds.12 mph47%29.92 "Hg10 mi
9:53 PM43 °FOvercast.16 mph56%29.91 "Hg10 mi
8:53 PM43 °FPassing clouds.13 mph56%29.90 "Hg10 mi
7:53 PM45 °FPassing clouds.10 mph49%29.88 "Hg10 mi
6:53 PM46 °FScattered clouds.14 mph54%29.86 "Hg10 mi
5:53 PM48 °FOvercast.16 mph48%29.83 "Hg10 mi
4:53 PM50 °FPartly sunny.15 mph46%29.81 "Hg10 mi
3:53 PM51 °FOvercast.14 mph46%29.78 "Hg10 mi
2:53 PM51 °FOvercast.15 mph48%29.77 "Hg10 mi
1:53 PM52 °FPartly sunny.16 mph47%29.74 "Hg10 mi
12:53 PM54 °FScattered clouds.20 mph47%29.73 "Hg10 mi
11:53 AM53 °FPartly sunny.13 mph48%29.77 "Hg10 mi
10:53 AM52 °FScattered clouds.16 mph53%29.73 "Hg10 mi
9:53 AM49 °FPartly sunny.16 mph59%29.76 "Hg10 mi
8:53 AM49 °FPartly sunny.12 mph61%29.75 "Hg10 mi
7:53 AM49 °FPassing clouds.15 mph64%29.72 "Hg10 mi
6:53 AM50 °FOvercast.15 mph63%29.69 "Hg10 mi
5:53 AM50 °FOvercast.10 mph66%29.66 "Hg10 mi
Weather by CustomWeather, © 2014

See weather overviewHow to use our weather pages